Simultaneous Nadir Overpasses (SNOs) Predictions

Prediction of SNOs between AQUA and NOAA-19 Satellite Orbit:

Table of predicted SNOs for the next 14.0 days since TLE Epoch: 6/14/2013
Index Date (AQUA) Time (AQUA) Lat,Lon (AQUA) SZA (AQUA ) Date (NOAA-19) Time (NOAA-19) Lat,Lon (NOAA-19) SZA (NOAA-19 ) Distance(km) Time Diff (sec)
1 06/16/2013 18:35:03 -47.27, 96.28 153.46 06/16/2013 18:34:42 -47.25, 96.27 153.51 2.36 21
2 06/18/2013 23:19:13 -46.99, 25.33 153.75 06/18/2013 23:18:57 -46.99, 25.31 153.78 0.98 16
3 06/21/2013 04:03:27 -46.96, -45.73 153.84 06/21/2013 04:03:16 -46.96, -45.74 153.85 1.42 11
4 06/23/2013 08:47:42 -47.00,-116.80 153.84 06/23/2013 08:47:36 -47.00,-116.83 153.85 1.84 6
5 06/25/2013 12:55:49 79.98,-115.82 69.17 06/25/2013 12:54:37 79.30,-113.43 68.99 89.57 72
6 06/25/2013 13:31:56 -46.98, 172.14 153.85 06/25/2013 13:31:55 -46.98, 172.11 153.85 2.11 1
7 06/27/2013 17:37:20 80.92,-124.07 59.92 06/27/2013 17:36:07 80.35,-125.65 59.73 69.72 73




NCC Satellite Simultaneous Nadir Overpasses (SNOs) Prediction Service
